Wetterdaten: aktuell Freitag, 22.03.2019 09:42
Datum Zeit Temp. I. Temp. 2m Temp. 5cm Temp. Lager Temp. Wr Temp. Cafe Feuchte I. Feuchte 2m LF Lager Feuchte Wr Feuchte Cafe Luftdruck Regen Wind Richtung Richtung Taupunkt Windchill Windben
22.03.2019 09:42 8,6 C 8,1 C 15,6 C 5,4 C 7,8 C 10,7 C 58 % 51 % 72 % 73 % 61 % 1029,1 hPa 0,0 l/m 0,8 km/h (0 Bft) S 180 -1,4 C 8,1 C 2,7 km/h (1 Bft)
22.03.2019 09:40 8,7 C 8,0 C 15,5 C 5,4 C 7,7 C 10,7 C 58 % 49 % 72 % 73 % 61 % 1028,9 hPa 0,0 l/m 0,8 km/h (0 Bft) O 90 -2,0 C 8,0 C 3,6 km/h (1 Bft)
22.03.2019 09:38 8,6 C 8,0 C 16,7 C 5,4 C 7,7 C 10,7 C 58 % 51 % 72 % 73 % 61 % 1028,9 hPa 0,0 l/m 1,0 km/h (0 Bft) SO 135 -1,5 C 8,0 C 4,6 km/h (1 Bft)
22.03.2019 09:36 8,6 C 7,8 C 15,2 C 5,4 C 7,7 C 10,7 C 58 % 51 % 72 % 73 % 61 % 1028,9 hPa 0,0 l/m 0,8 km/h (0 Bft) N-NO 22 -1,7 C 7,8 C 4,6 km/h (1 Bft)
22.03.2019 09:34 8,6 C 7,5 C 16,4 C 5,3 C 7,6 C 10,7 C 58 % 51 % 72 % 73 % 61 % 1028,9 hPa 0,0 l/m 0,8 km/h (0 Bft) W-SW 247 -2,0 C 7,5 C 0,0 km/h (0 Bft)
22.03.2019 09:32 8,4 C 7,4 C 16,3 C 5,4 C 7,7 C 10,7 C 58 % 50 % 72 % 73 % 61 % 1028,9 hPa 0,0 l/m 1,1 km/h (1 Bft) SO 135 -2,3 C 7,4 C 0,0 km/h (0 Bft)
22.03.2019 09:30 8,4 C 7,4 C 14,7 C 5,3 C 7,6 C 10,6 C 58 % 50 % 72 % 73 % 61 % 1028,9 hPa 0,0 l/m 1,1 km/h (1 Bft) O-SO 112 -2,3 C 7,4 C 5,6 km/h (1 Bft)
22.03.2019 09:28 8,5 C 7,4 C 12,6 C 5,3 C 7,5 C 10,6 C 58 % 51 % 72 % 73 % 61 % 1028,9 hPa 0,0 l/m 1,3 km/h (1 Bft) O-NO 67 -2,1 C 7,4 C 5,6 km/h (1 Bft)
22.03.2019 09:26 8,3 C 7,4 C 12,3 C 5,3 C 7,5 C 10,5 C 58 % 52 % 72 % 73 % 61 % 1028,9 hPa 0,0 l/m 1,3 km/h (1 Bft) W-SW 247 -1,8 C 7,4 C 0,0 km/h (0 Bft)
22.03.2019 09:24 8,3 C 7,2 C 11,0 C 5,3 C 7,5 C 10,5 C 58 % 52 % 72 % 73 % 61 % 1028,9 hPa 0,0 l/m 1,8 km/h (1 Bft) O-SO 112 -2,0 C 7,2 C 5,1 km/h (1 Bft)
22.03.2019 09:22 8,4 C 7,0 C 11,4 C 5,3 C 7,5 C 10,5 C 58 % 52 % 72 % 73 % 61 % 1028,9 hPa 0,0 l/m 1,9 km/h (1 Bft) S 180 -2,2 C 7,0 C 5,1 km/h (1 Bft)
22.03.2019 09:20 8,4 C 6,9 C 11,1 C 5,3 C 7,3 C 10,5 C 58 % 50 % 72 % 73 % 61 % 1028,6 hPa 0,0 l/m 1,9 km/h (1 Bft) S-SO 157 -2,8 C 6,9 C 4,8 km/h (1 Bft)
22.03.2019 09:18 8,2 C 7,0 C 9,3 C 5,3 C 7,3 C 10,5 C 58 % 50 % 72 % 73 % 61 % 1028,6 hPa 0,0 l/m 2,3 km/h (1 Bft) SO 135 -2,7 C 7,0 C 6,0 km/h (2 Bft)
22.03.2019 09:16 8,3 C 7,0 C 8,5 C 5,3 C 7,2 C 10,5 C 58 % 51 % 72 % 73 % 61 % 1028,6 hPa 0,0 l/m 2,7 km/h (1 Bft) SO 135 -2,4 C 7,0 C 6,8 km/h (2 Bft)
22.03.2019 09:14 8,1 C 7,2 C 9,0 C 5,3 C 7,3 C 10,4 C 58 % 50 % 72 % 73 % 61 % 1028,6 hPa 0,0 l/m 2,9 km/h (1 Bft) S-SO 157 -2,5 C 7,2 C 6,8 km/h (2 Bft)
22.03.2019 09:12 8,2 C 7,0 C 9,2 C 5,3 C 7,1 C 10,4 C 58 % 51 % 72 % 73 % 61 % 1028,6 hPa 0,0 l/m 2,9 km/h (1 Bft) SO 135 -2,4 C 7,0 C 4,8 km/h (1 Bft)
22.03.2019 09:10 8,2 C 6,9 C 8,6 C 5,2 C 7,1 C 10,3 C 58 % 51 % 72 % 73 % 61 % 1028,6 hPa 0,0 l/m 3,4 km/h (1 Bft) O-SO 112 -2,5 C 6,9 C 5,6 km/h (1 Bft)
22.03.2019 09:08 8,1 C 6,9 C 8,7 C 5,2 C 7,1 C 10,3 C 58 % 49 % 72 % 74 % 61 % 1028,6 hPa 0,0 l/m 3,4 km/h (1 Bft) O-SO 112 -3,1 C 6,9 C 8,7 km/h (2 Bft)
22.03.2019 09:06 8,1 C 6,9 C 8,7 C 5,2 C 7,1 C 10,3 C 58 % 49 % 72 % 74 % 61 % 1028,6 hPa 0,0 l/m 3,2 km/h (1 Bft) O-SO 112 -3,1 C 6,9 C 8,7 km/h (2 Bft)
22.03.2019 09:04 8,1 C 6,9 C 8,4 C 5,2 C 7,1 C 10,3 C 58 % 51 % 72 % 74 % 61 % 1028,6 hPa 0,0 l/m 2,9 km/h (1 Bft) O 90 -2,5 C 6,9 C 4,3 km/h (1 Bft)
22.03.2019 09:02 7,9 C 6,8 C 8,4 C 5,2 C 7,1 C 10,3 C 58 % 52 % 72 % 74 % 61 % 1028,6 hPa 0,0 l/m 2,6 km/h (1 Bft) N-NW 337 -2,4 C 6,8 C 7,2 km/h (2 Bft)
22.03.2019 09:00 8,0 C 6,6 C 7,4 C 5,2 C 6,8 C 10,2 C 58 % 51 % 72 % 74 % 61 % 1028,7 hPa 0,0 l/m 2,9 km/h (1 Bft) O-SO 112 -2,8 C 6,6 C 7,5 km/h (2 Bft)
22.03.2019 08:58 8,0 C 6,5 C 7,6 C 5,2 C 6,8 C 10,3 C 58 % 52 % 72 % 74 % 61 % 1028,7 hPa 0,0 l/m 3,2 km/h (1 Bft) SO 135 -2,6 C 6,5 C 7,5 km/h (2 Bft)
22.03.2019 08:56 7,9 C 6,6 C 9,1 C 5,2 C 6,8 C 10,2 C 58 % 52 % 72 % 74 % 61 % 1028,7 hPa 0,0 l/m 3,4 km/h (1 Bft) SO 135 -2,5 C 6,6 C 3,1 km/h (1 Bft)
22.03.2019 08:54 7,9 C 6,6 C 10,1 C 5,2 C 6,8 C 10,3 C 58 % 53 % 72 % 74 % 61 % 1028,7 hPa 0,0 l/m 3,7 km/h (1 Bft) SO 135 -2,3 C 6,6 C 5,6 km/h (1 Bft)
22.03.2019 08:52 7,8 C 6,4 C 7,9 C 5,2 C 6,8 C 10,2 C 58 % 50 % 72 % 74 % 61 % 1028,7 hPa 0,0 l/m 4,0 km/h (1 Bft) SO 135 -3,2 C 6,4 C 9,4 km/h (2 Bft)
22.03.2019 08:50 7,8 C 6,4 C 7,4 C 5,2 C 6,8 C 10,1 C 58 % 51 % 72 % 74 % 61 % 1028,7 hPa 0,0 l/m 4,3 km/h (1 Bft) O-SO 112 -3,0 C 6,4 C 11,3 km/h (2 Bft)
22.03.2019 08:48 7,6 C 6,5 C 8,0 C 5,2 C 6,8 C 10,1 C 58 % 51 % 72 % 74 % 61 % 1028,7 hPa 0,0 l/m 4,2 km/h (1 Bft) SO 135 -2,9 C 6,5 C 11,3 km/h (2 Bft)
22.03.2019 08:46 7,6 C 6,4 C 9,2 C 5,1 C 6,8 C 10,1 C 58 % 51 % 72 % 74 % 61 % 1028,7 hPa 0,0 l/m 4,3 km/h (1 Bft) O-SO 112 -3,0 C 6,4 C 6,5 km/h (2 Bft)
22.03.2019 08:44 7,5 C 6,3 C 9,3 C 5,1 C 6,8 C 10,1 C 58 % 50 % 72 % 74 % 62 % 1028,7 hPa 0,0 l/m 4,7 km/h (1 Bft) O-SO 112 -3,3 C 6,3 C 6,8 km/h (2 Bft)
22.03.2019 08:42 7,5 C 6,3 C 8,6 C 5,1 C 6,8 C 10,1 C 58 % 50 % 72 % 74 % 62 % 1028,7 hPa 0,0 l/m 4,7 km/h (1 Bft) O-SO 112 -3,3 C 6,3 C 9,2 km/h (2 Bft)
22.03.2019 08:40 7,6 C 6,3 C 8,1 C 5,2 C 6,8 C 10,1 C 59 % 50 % 72 % 74 % 62 % 1028,2 hPa 0,0 l/m 4,5 km/h (1 Bft) N 360 -3,3 C 6,3 C 9,2 km/h (2 Bft)
22.03.2019 08:38 7,4 C 6,4 C 7,8 C 5,2 C 6,8 C 10,1 C 59 % 50 % 72 % 74 % 62 % 1028,2 hPa 0,0 l/m 3,9 km/h (1 Bft) O-SO 112 -3,2 C 6,4 C 8,2 km/h (2 Bft)
22.03.2019 08:36 7,5 C 6,4 C 7,7 C 5,2 C 6,8 C 10,1 C 59 % 51 % 72 % 74 % 62 % 1028,2 hPa 0,0 l/m 3,5 km/h (1 Bft) O-NO 67 -3,0 C 6,4 C 10,6 km/h (2 Bft)
22.03.2019 08:34 7,5 C 6,4 C 9,4 C 5,2 C 6,9 C 10,0 C 59 % 51 % 72 % 73 % 62 % 1028,2 hPa 0,0 l/m 3,1 km/h (1 Bft) O-SO 112 -3,0 C 6,4 C 10,6 km/h (2 Bft)
22.03.2019 08:32 7,4 C 6,3 C 9,4 C 5,2 C 6,9 C 10,0 C 59 % 52 % 72 % 73 % 62 % 1028,2 hPa 0,0 l/m 2,7 km/h (1 Bft) O-NO 67 -2,8 C 6,3 C 6,8 km/h (2 Bft)
22.03.2019 08:30 7,4 C 6,3 C 8,7 C 5,1 C 6,8 C 10,1 C 59 % 52 % 72 % 73 % 62 % 1028,2 hPa 0,0 l/m 2,9 km/h (1 Bft) O-SO 112 -2,8 C 6,3 C 5,8 km/h (2 Bft)
22.03.2019 08:28 7,2 C 6,3 C 7,0 C 5,1 C 6,8 C 10,1 C 59 % 51 % 72 % 73 % 62 % 1028,2 hPa 0,0 l/m 3,2 km/h (1 Bft) O-SO 112 -3,1 C 6,3 C 6,0 km/h (2 Bft)
22.03.2019 08:26 7,3 C 6,3 C 7,0 C 5,1 C 6,8 C 10,0 C 59 % 51 % 72 % 74 % 62 % 1028,2 hPa 0,0 l/m 3,2 km/h (1 Bft) O 90 -3,1 C 6,3 C 6,0 km/h (2 Bft)
22.03.2019 08:24 7,1 C 6,4 C 6,2 C 5,1 C 6,8 C 10,0 C 59 % 52 % 72 % 73 % 62 % 1028,2 hPa 0,0 l/m 3,1 km/h (1 Bft) O 90 -2,7 C 6,4 C 6,5 km/h (2 Bft)
22.03.2019 08:22 7,2 C 6,3 C 5,8 C 5,1 C 6,8 C 10,0 C 59 % 52 % 73 % 73 % 62 % 1028,2 hPa 0,0 l/m 2,6 km/h (1 Bft) O-NO 67 -2,8 C 6,3 C 10,1 km/h (2 Bft)
22.03.2019 08:20 7,2 C 6,2 C 5,8 C 5,1 C 6,8 C 9,9 C 59 % 53 % 73 % 73 % 62 % 1028,2 hPa 0,0 l/m 2,3 km/h (1 Bft) O-SO 112 -2,7 C 6,2 C 10,1 km/h (2 Bft)
22.03.2019 08:18 7,2 C 6,2 C 5,3 C 5,1 C 6,7 C 9,9 C 59 % 53 % 73 % 73 % 62 % 1028,2 hPa 0,0 l/m 1,4 km/h (1 Bft) O-SO 112 -2,7 C 6,2 C 6,0 km/h (2 Bft)
22.03.2019 08:16 7,2 C 6,1 C 5,5 C 5,1 C 6,7 C 9,9 C 59 % 53 % 73 % 73 % 62 % 1028,2 hPa 0,0 l/m 1,1 km/h (1 Bft) SO 135 -2,7 C 6,1 C 4,1 km/h (1 Bft)
22.03.2019 08:14 7,1 C 6,0 C 5,5 C 5,1 C 6,7 C 9,9 C 59 % 53 % 73 % 73 % 62 % 1028,2 hPa 0,0 l/m 1,1 km/h (1 Bft) O-NO 67 -2,8 C 6,0 C 4,1 km/h (1 Bft)
22.03.2019 08:12 7,1 C 6,0 C 4,8 C 5,1 C 6,8 C 9,9 C 59 % 53 % 72 % 73 % 62 % 1028,2 hPa 0,0 l/m 0,8 km/h (0 Bft) SW 225 -2,8 C 6,0 C 4,3 km/h (1 Bft)
22.03.2019 08:10 7,1 C 6,0 C 5,4 C 5,1 C 6,7 C 9,9 C 59 % 53 % 72 % 73 % 62 % 1028,2 hPa 0,0 l/m 0,8 km/h (0 Bft) S-SO 157 -2,8 C 6,0 C 4,3 km/h (1 Bft)
22.03.2019 08:08 7,0 C 6,0 C 5,1 C 5,1 C 6,7 C 9,9 C 59 % 53 % 72 % 73 % 63 % 1028,2 hPa 0,0 l/m 0,6 km/h (0 Bft) N-NO 22 -2,8 C 6,0 C 2,9 km/h (1 Bft)
22.03.2019 08:06 7,0 C 6,0 C 4,5 C 5,1 C 6,7 C 9,9 C 59 % 53 % 72 % 73 % 63 % 1028,2 hPa 0,0 l/m 0,5 km/h (0 Bft) SO 135 -2,8 C 6,0 C 3,4 km/h (1 Bft)
22.03.2019 08:04 6,8 C 6,1 C 4,1 C 5,1 C 6,7 C 9,9 C 59 % 52 % 72 % 73 % 63 % 1028,2 hPa 0,0 l/m 0,6 km/h (0 Bft) S-SO 157 -3,0 C 6,1 C 3,4 km/h (1 Bft)
22.03.2019 08:02 6,8 C 6,2 C 4,1 C 5,1 C 6,8 C 9,9 C 59 % 52 % 72 % 73 % 63 % 1028,2 hPa 0,0 l/m 1,0 km/h (0 Bft) SO 135 -2,9 C 6,2 C 3,9 km/h (1 Bft)
22.03.2019 08:00 6,8 C 6,3 C 3,9 C 5,1 C 6,7 C 9,9 C 59 % 52 % 72 % 73 % 63 % 1028,1 hPa 0,0 l/m 1,4 km/h (1 Bft) S 180 -2,8 C 6,3 C 3,9 km/h (1 Bft)
22.03.2019 07:58 6,8 C 6,3 C 4,1 C 5,1 C 6,7 C 9,9 C 59 % 52 % 72 % 73 % 64 % 1028,1 hPa 0,0 l/m 1,9 km/h (1 Bft) S-SO 157 -2,8 C 6,3 C 0,0 km/h (0 Bft)
22.03.2019 07:56 6,8 C 6,3 C 3,8 C 5,1 C 6,7 C 9,9 C 59 % 52 % 72 % 73 % 64 % 1028,1 hPa 0,0 l/m 2,1 km/h (1 Bft) SO 135 -2,8 C 6,3 C 0,0 km/h (0 Bft)
22.03.2019 07:54 6,8 C 6,2 C 3,9 C 5,1 C 6,7 C 9,9 C 59 % 52 % 72 % 73 % 63 % 1028,1 hPa 0,0 l/m 2,4 km/h (1 Bft) O 90 -2,9 C 6,2 C 5,1 km/h (1 Bft)
22.03.2019 07:52 6,8 C 6,2 C 4,3 C 5,1 C 6,7 C 9,9 C 59 % 52 % 72 % 72 % 64 % 1028,1 hPa 0,0 l/m 2,7 km/h (1 Bft) O-NO 67 -2,9 C 6,2 C 5,3 km/h (1 Bft)
22.03.2019 07:50 6,6 C 6,1 C 4,4 C 5,1 C 6,7 C 9,9 C 59 % 52 % 72 % 72 % 63 % 1028,1 hPa 0,0 l/m 2,7 km/h (1 Bft) S-SW 202 -3,0 C 6,1 C 5,8 km/h (2 Bft)
22.03.2019 07:48 6,7 C 6,1 C 4,7 C 5,1 C 6,6 C 9,8 C 59 % 52 % 72 % 72 % 63 % 1028,1 hPa 0,0 l/m 2,6 km/h (1 Bft) O-SO 112 -3,0 C 6,1 C 5,8 km/h (2 Bft)
22.03.2019 07:46 6,7 C 6,0 C 4,8 C 5,1 C 6,7 C 9,7 C 59 % 52 % 72 % 72 % 63 % 1028,1 hPa 0,0 l/m 2,6 km/h (1 Bft) O 90 -3,1 C 6,0 C 4,8 km/h (1 Bft)
22.03.2019 07:44 6,7 C 6,0 C 5,2 C 5,1 C 6,7 C 9,9 C 59 % 53 % 72 % 72 % 63 % 1028,1 hPa 0,0 l/m 2,6 km/h (1 Bft) O-SO 112 -2,8 C 6,0 C 6,3 km/h (2 Bft)
22.03.2019 07:42 6,6 C 6,0 C 5,4 C 5,1 C 6,7 C 9,7 C 59 % 53 % 72 % 72 % 63 % 1028,1 hPa 0,0 l/m 2,6 km/h (1 Bft) SO 135 -2,8 C 6,0 C 6,3 km/h (2 Bft)
22.03.2019 07:40 6,6 C 6,0 C 5,8 C 5,1 C 6,7 C 9,8 C 59 % 53 % 72 % 72 % 63 % 1028,1 hPa 0,0 l/m 2,4 km/h (1 Bft) O-SO 112 -2,8 C 6,0 C 5,8 km/h (2 Bft)
22.03.2019 07:38 6,4 C 5,9 C 6,3 C 5,1 C 6,7 C 9,8 C 59 % 54 % 72 % 72 % 63 % 1028,1 hPa 0,0 l/m 2,6 km/h (1 Bft) O-NO 67 -2,7 C 5,9 C 3,6 km/h (1 Bft)
22.03.2019 07:36 6,4 C 5,8 C 7,0 C 5,1 C 6,6 C 9,7 C 59 % 55 % 72 % 72 % 63 % 1028,1 hPa 0,0 l/m 2,6 km/h (1 Bft) O-SO 112 -2,5 C 5,8 C 5,3 km/h (1 Bft)
22.03.2019 07:34 6,4 C 5,8 C 7,7 C 5,1 C 6,6 C 9,7 C 59 % 55 % 72 % 72 % 63 % 1028,1 hPa 0,0 l/m 2,7 km/h (1 Bft) O-NO 67 -2,5 C 5,8 C 5,3 km/h (1 Bft)
22.03.2019 07:32 6,3 C 5,7 C 7,7 C 5,1 C 6,7 C 9,7 C 59 % 55 % 72 % 72 % 63 % 1028,1 hPa 0,0 l/m 2,9 km/h (1 Bft) O-NO 67 -2,6 C 5,7 C 4,6 km/h (1 Bft)
22.03.2019 07:30 6,3 C 5,4 C 7,7 C 5,1 C 6,7 C 9,7 C 59 % 55 % 72 % 72 % 63 % 1028,1 hPa 0,0 l/m 3,1 km/h (1 Bft) O 90 -2,9 C 5,4 C 5,1 km/h (1 Bft)
22.03.2019 07:28 6,3 C 5,3 C 8,1 C 5,1 C 6,7 C 9,6 C 59 % 55 % 72 % 72 % 63 % 1028,1 hPa 0,0 l/m 3,4 km/h (1 Bft) O 90 -3,0 C 5,3 C 5,1 km/h (1 Bft)
22.03.2019 07:26 6,4 C 5,3 C 8,1 C 5,1 C 6,7 C 9,6 C 59 % 55 % 72 % 72 % 63 % 1028,1 hPa 0,0 l/m 3,9 km/h (1 Bft) O 90 -3,0 C 5,3 C 4,8 km/h (1 Bft)
22.03.2019 07:24 6,4 C 5,3 C 7,8 C 5,1 C 6,7 C 9,7 C 59 % 55 % 72 % 72 % 63 % 1028,1 hPa 0,0 l/m 4,2 km/h (1 Bft) O-SO 112 -3,0 C 5,3 C 6,5 km/h (2 Bft)
22.03.2019 07:22 6,4 C 5,1 C 7,4 C 5,1 C 6,7 C 9,7 C 59 % 55 % 72 % 72 % 63 % 1028,1 hPa 0,0 l/m 4,3 km/h (1 Bft) O-NO 67 -3,2 C 5,1 C 6,5 km/h (2 Bft)
22.03.2019 07:20 6,4 C 5,0 C 7,5 C 5,1 C 6,7 C 9,6 C 59 % 55 % 72 % 72 % 63 % 1027,9 hPa 0,0 l/m 4,7 km/h (1 Bft) O-NO 67 -3,3 C 5,0 C 6,5 km/h (2 Bft)
22.03.2019 07:18 6,2 C 5,0 C 7,5 C 5,1 C 6,7 C 9,6 C 59 % 55 % 72 % 72 % 63 % 1027,9 hPa 0,0 l/m 4,5 km/h (1 Bft) O-NO 67 -3,3 C 5,0 C 10,4 km/h (2 Bft)
22.03.2019 07:16 6,3 C 5,0 C 7,9 C 5,1 C 6,7 C 9,6 C 59 % 55 % 72 % 72 % 63 % 1027,9 hPa 0,0 l/m 4,7 km/h (1 Bft) O-NO 67 -3,3 C 5,0 C 10,4 km/h (2 Bft)
22.03.2019 07:14 6,3 C 4,9 C 7,8 C 5,1 C 6,7 C 9,5 C 59 % 55 % 72 % 72 % 63 % 1027,9 hPa 0,0 l/m 4,3 km/h (1 Bft) O-NO 67 -3,4 C 4,9 C 8,0 km/h (2 Bft)
22.03.2019 07:12 6,3 C 4,9 C 7,3 C 5,1 C 6,7 C 9,5 C 59 % 55 % 72 % 72 % 63 % 1027,9 hPa 0,0 l/m 4,5 km/h (1 Bft) O-NO 67 -3,4 C 4,9 C 8,2 km/h (2 Bft)
22.03.2019 07:10 6,3 C 4,9 C 7,7 C 5,1 C 6,7 C 9,5 C 59 % 55 % 72 % 72 % 63 % 1027,9 hPa 0,0 l/m 4,3 km/h (1 Bft) O-NO 67 -3,4 C 4,9 C 8,2 km/h (2 Bft)
22.03.2019 07:08 6,2 C 4,9 C 7,8 C 5,1 C 6,7 C 9,6 C 59 % 55 % 72 % 72 % 63 % 1027,9 hPa 0,0 l/m 4,3 km/h (1 Bft) O-NO 67 -3,4 C 4,9 C 7,0 km/h (2 Bft)
22.03.2019 07:06 6,2 C 4,8 C 7,9 C 5,1 C 6,7 C 9,5 C 59 % 55 % 72 % 72 % 63 % 1027,9 hPa 0,0 l/m 4,2 km/h (1 Bft) O-NO 67 -3,5 C 4,8 C 8,9 km/h (2 Bft)
22.03.2019 07:04 6,2 C 4,8 C 7,4 C 5,1 C 6,7 C 9,5 C 59 % 55 % 72 % 72 % 63 % 1027,9 hPa 0,0 l/m 4,0 km/h (1 Bft) O-SO 112 -3,5 C 4,8 C 11,3 km/h (2 Bft)
22.03.2019 07:02 6,2 C 4,7 C 6,9 C 5,1 C 6,7 C 9,5 C 59 % 56 % 72 % 72 % 63 % 1027,9 hPa 0,0 l/m 4,0 km/h (1 Bft) O-NO 67 -3,3 C 4,7 C 11,3 km/h (2 Bft)
22.03.2019 07:00 6,2 C 4,7 C 6,7 C 5,1 C 6,7 C 9,5 C 59 % 56 % 72 % 72 % 63 % 1027,9 hPa 0,0 l/m 4,0 km/h (1 Bft) O 90 -3,3 C 4,7 C 6,0 km/h (2 Bft)
22.03.2019 06:58 6,2 C 4,6 C 6,1 C 5,1 C 6,7 C 9,4 C 59 % 56 % 72 % 72 % 63 % 1027,9 hPa 0,0 l/m 4,0 km/h (1 Bft) O-NO 67 -3,4 C 4,6 C 7,2 km/h (2 Bft)
22.03.2019 06:56 6,0 C 4,6 C 5,4 C 5,1 C 6,7 C 9,5 C 59 % 56 % 72 % 72 % 63 % 1027,9 hPa 0,0 l/m 4,5 km/h (1 Bft) O-NO 67 -3,4 C 4,6 C 7,2 km/h (2 Bft)
22.03.2019 06:54 6,0 C 4,4 C 4,7 C 5,1 C 6,6 C 9,5 C 59 % 56 % 72 % 72 % 63 % 1027,9 hPa 0,0 l/m 4,7 km/h (1 Bft) O-NO 67 -3,6 C 4,4 C 6,5 km/h (2 Bft)
22.03.2019 06:52 6,0 C 4,4 C 4,4 C 5,1 C 6,6 C 9,4 C 59 % 56 % 72 % 72 % 63 % 1027,9 hPa 0,0 l/m 5,0 km/h (1 Bft) O-NO 67 -3,6 C 4,4 C 8,4 km/h (2 Bft)
22.03.2019 06:50 6,0 C 4,4 C 4,4 C 5,1 C 6,6 C 9,5 C 58 % 56 % 72 % 72 % 63 % 1027,9 hPa 0,0 l/m 4,8 km/h (1 Bft) O-NO 67 -3,6 C 4,4 C 8,4 km/h (2 Bft)
22.03.2019 06:48 6,0 C 4,3 C 3,7 C 5,1 C 6,6 C 9,5 C 59 % 55 % 72 % 72 % 63 % 1027,9 hPa 0,0 l/m 4,7 km/h (1 Bft) O-NO 67 -3,9 C 4,3 C 7,5 km/h (2 Bft)
22.03.2019 06:46 6,0 C 4,3 C 3,2 C 5,1 C 6,7 C 9,4 C 59 % 56 % 72 % 72 % 63 % 1027,9 hPa 0,0 l/m 4,7 km/h (1 Bft) O-NO 67 -3,7 C 4,3 C 9,2 km/h (2 Bft)
22.03.2019 06:44 6,1 C 4,3 C 3,1 C 5,1 C 6,7 C 9,3 C 58 % 55 % 72 % 72 % 63 % 1027,9 hPa 0,0 l/m 4,5 km/h (1 Bft) O-NO 67 -3,9 C 4,3 C 9,2 km/h (2 Bft)
22.03.2019 06:42 6,0 C 4,3 C 3,0 C 5,1 C 6,7 C 9,4 C 58 % 55 % 72 % 72 % 63 % 1027,9 hPa 0,0 l/m 4,2 km/h (1 Bft) O 90 -3,9 C 4,3 C 8,0 km/h (2 Bft)
22.03.2019 06:40 6,0 C 4,2 C 2,6 C 5,0 C 6,7 C 9,4 C 58 % 55 % 72 % 72 % 63 % 1027,6 hPa 0,0 l/m 4,3 km/h (1 Bft) O-NO 67 -4,0 C 4,2 C 7,0 km/h (2 Bft)
22.03.2019 06:38 6,0 C 4,2 C 2,1 C 5,0 C 6,7 C 9,3 C 58 % 55 % 72 % 72 % 63 % 1027,6 hPa 0,0 l/m 4,3 km/h (1 Bft) O-NO 67 -4,0 C 4,2 C 8,4 km/h (2 Bft)
22.03.2019 06:36 6,0 C 4,1 C 1,8 C 5,1 C 6,7 C 9,3 C 58 % 55 % 72 % 72 % 63 % 1027,6 hPa 0,0 l/m 4,3 km/h (1 Bft) O 90 -4,1 C 4,1 C 8,4 km/h (2 Bft)
22.03.2019 06:34 6,0 C 4,1 C 1,4 C 5,1 C 6,6 C 9,3 C 58 % 56 % 72 % 72 % 63 % 1027,6 hPa 0,0 l/m 4,3 km/h (1 Bft) O 90 -3,9 C 4,1 C 7,0 km/h (2 Bft)
22.03.2019 06:32 6,0 C 4,0 C 1,3 C 5,1 C 6,7 C 9,3 C 58 % 56 % 72 % 72 % 63 % 1027,6 hPa 0,0 l/m 4,7 km/h (1 Bft) O-NO 67 -4,0 C 4,0 C 9,2 km/h (2 Bft)
22.03.2019 06:30 6,0 C 4,0 C 1,1 C 5,1 C 6,7 C 9,2 C 58 % 56 % 72 % 72 % 64 % 1027,6 hPa 0,0 l/m 4,8 km/h (1 Bft) O-NO 67 -4,0 C 4,0 C 9,2 km/h (2 Bft)
22.03.2019 06:28 6,0 C 3,8 C 0,7 C 5,1 C 6,7 C 9,3 C 58 % 56 % 72 % 72 % 63 % 1027,6 hPa 0,0 l/m 5,0 km/h (1 Bft) O 90 -4,2 C 3,8 C 7,7 km/h (2 Bft)
22.03.2019 06:26 6,0 C 3,8 C 0,6 C 5,0 C 6,7 C 9,3 C 58 % 56 % 72 % 72 % 63 % 1027,6 hPa 0,0 l/m 5,3 km/h (1 Bft) O-NO 67 -4,2 C 3,8 C 8,9 km/h (2 Bft)
22.03.2019 06:24 6,0 C 3,8 C 0,8 C 5,1 C 6,7 C 9,2 C 58 % 56 % 72 % 72 % 63 % 1027,6 hPa 0,0 l/m 5,8 km/h (2 Bft) O-NO 67 -4,2 C 3,8 C 8,9 km/h (2 Bft)
22.03.2019 06:22 6,2 C 3,8 C 1,1 C 5,0 C 6,7 C 9,3 C 58 % 56 % 72 % 72 % 63 % 1027,6 hPa 0,0 l/m 6,0 km/h (2 Bft) O-NO 67 -4,2 C 3,8 C 8,7 km/h (2 Bft)
22.03.2019 06:20 6,2 C 3,8 C 0,9 C 5,0 C 6,7 C 9,2 C 58 % 56 % 72 % 72 % 63 % 1027,9 hPa 0,0 l/m 6,1 km/h (2 Bft) O-NO 67 -4,2 C 3,8 C 11,6 km/h (2 Bft)
22.03.2019 06:18 6,2 C 3,8 C 1,2 C 5,0 C 6,7 C 9,3 C 58 % 56 % 72 % 72 % 63 % 1027,9 hPa 0,0 l/m 6,3 km/h (2 Bft) O-NO 67 -4,2 C 3,8 C 11,6 km/h (2 Bft)
22.03.2019 06:16 6,2 C 3,8 C 1,1 C 5,0 C 6,8 C 9,2 C 58 % 56 % 72 % 72 % 63 % 1027,9 hPa 0,0 l/m 6,0 km/h (2 Bft) O-NO 67 -4,2 C 3,8 C 8,9 km/h (2 Bft)
22.03.2019 06:14 6,2 C 3,7 C 0,9 C 5,0 C 6,8 C 9,3 C 58 % 56 % 72 % 72 % 63 % 1027,9 hPa 0,0 l/m 5,5 km/h (1 Bft) O-NO 67 -4,2 C 3,7 C 8,9 km/h (2 Bft)
22.03.2019 06:12 6,2 C 3,8 C 0,7 C 5,0 C 6,8 C 9,3 C 58 % 55 % 72 % 72 % 64 % 1027,9 hPa 0,0 l/m 5,5 km/h (1 Bft) O-NO 67 -4,4 C 3,8 C 8,2 km/h (2 Bft)
22.03.2019 06:10 6,2 C 3,8 C 0,7 C 5,0 C 6,8 C 9,3 C 58 % 55 % 72 % 72 % 64 % 1027,9 hPa 0,0 l/m 5,5 km/h (1 Bft) O-NO 67 -4,4 C 3,8 C 8,2 km/h (2 Bft)
22.03.2019 06:08 6,2 C 3,8 C 0,7 C 5,0 C 6,8 C 9,3 C 58 % 55 % 72 % 72 % 64 % 1027,9 hPa 0,0 l/m 5,5 km/h (1 Bft) O-NO 67 -4,4 C 3,8 C 8,2 km/h (2 Bft)
22.03.2019 06:06 6,2 C 3,8 C 0,7 C 5,0 C 6,8 C 9,3 C 58 % 55 % 72 % 72 % 64 % 1027,9 hPa 0,0 l/m 5,5 km/h (1 Bft) O-NO 67 -4,4 C 3,8 C 8,2 km/h (2 Bft)
22.03.2019 06:04 6,2 C 3,8 C 0,7 C 5,0 C 6,8 C 9,3 C 58 % 55 % 72 % 72 % 64 % 1027,9 hPa 0,0 l/m 5,5 km/h (1 Bft) O-NO 67 -4,4 C 3,8 C 8,9 km/h (2 Bft)
22.03.2019 06:02 6,2 C 3,8 C 0,7 C 5,0 C 6,8 C 9,3 C 58 % 55 % 72 % 72 % 64 % 1027,9 hPa 0,0 l/m 5,6 km/h (1 Bft) O 90 -4,4 C 3,8 C 8,9 km/h (2 Bft)
22.03.2019 06:00 6,1 C 4,0 C 1,1 C 5,0 C 6,8 C 9,3 C 58 % 55 % 72 % 72 % 64 % 1027,6 hPa 0,0 l/m 5,8 km/h (2 Bft) O 90 -4,2 C 4,0 C 10,4 km/h (2 Bft)
22.03.2019 05:58 6,3 C 4,0 C 1,2 C 5,0 C 6,8 C 9,3 C 58 % 55 % 72 % 72 % 64 % 1027,6 hPa 0,0 l/m 6,3 km/h (2 Bft) O-NO 67 -4,2 C 4,0 C 10,4 km/h (2 Bft)
22.03.2019 05:56 6,1 C 3,8 C 0,9 C 5,0 C 6,8 C 9,3 C 58 % 55 % 72 % 72 % 64 % 1027,6 hPa 0,0 l/m 6,3 km/h (2 Bft) O-NO 67 -4,4 C 3,8 C 9,4 km/h (2 Bft)
22.03.2019 05:54 6,1 C 3,8 C 1,1 C 5,0 C 6,8 C 9,3 C 58 % 55 % 72 % 72 % 64 % 1027,6 hPa 0,0 l/m 6,3 km/h (2 Bft) O-NO 67 -4,4 C 3,8 C 12,8 km/h (3 Bft)
22.03.2019 05:52 6,1 C 3,8 C 1,2 C 5,0 C 6,8 C 9,3 C 58 % 55 % 73 % 72 % 64 % 1027,6 hPa 0,0 l/m 6,1 km/h (2 Bft) O-NO 67 -4,4 C 3,8 C 10,6 km/h (2 Bft)
22.03.2019 05:50 6,3 C 3,8 C 1,2 C 5,0 C 6,8 C 9,3 C 58 % 55 % 73 % 72 % 64 % 1027,6 hPa 0,0 l/m 6,0 km/h (2 Bft) O-NO 67 -4,4 C 3,8 C 11,6 km/h (2 Bft)
22.03.2019 05:48 6,3 C 3,8 C 1,1 C 5,0 C 6,8 C 9,3 C 58 % 55 % 73 % 72 % 64 % 1027,6 hPa 0,0 l/m 5,6 km/h (1 Bft) O-NO 67 -4,4 C 3,8 C 11,6 km/h (2 Bft)
22.03.2019 05:46 6,3 C 3,7 C 0,4 C 5,0 C 6,8 C 9,3 C 58 % 55 % 73 % 72 % 64 % 1027,6 hPa 0,0 l/m 5,3 km/h (1 Bft) O-NO 67 -4,5 C 3,7 C 11,1 km/h (2 Bft)
22.03.2019 05:44 6,3 C 3,7 C 0,2 C 5,0 C 6,8 C 9,3 C 58 % 55 % 73 % 72 % 64 % 1027,6 hPa 0,0 l/m 5,1 km/h (1 Bft) O-NO 67 -4,5 C 3,7 C 10,6 km/h (2 Bft)
22.03.2019 05:42 6,2 C 3,7 C -0,3 C 5,0 C 6,8 C 9,4 C 58 % 54 % 73 % 72 % 64 % 1027,6 hPa 0,0 l/m 5,0 km/h (1 Bft) O-NO 67 -4,7 C 3,7 C 7,5 km/h (2 Bft)
22.03.2019 05:40 6,4 C 3,7 C -0,5 C 5,0 C 6,8 C 9,3 C 58 % 54 % 73 % 72 % 64 % 1027,8 hPa 0,0 l/m 5,1 km/h (1 Bft) O-NO 67 -4,7 C 3,7 C 7,5 km/h (2 Bft)
22.03.2019 05:38 6,4 C 3,7 C -0,3 C 5,0 C 6,8 C 9,3 C 58 % 54 % 73 % 72 % 64 % 1027,8 hPa 0,0 l/m 5,3 km/h (1 Bft) O-NO 67 -4,7 C 3,7 C 9,9 km/h (2 Bft)
22.03.2019 05:36 6,4 C 3,7 C -0,4 C 5,0 C 6,8 C 9,3 C 58 % 54 % 73 % 72 % 64 % 1027,8 hPa 0,0 l/m 5,5 km/h (1 Bft) O-NO 67 -4,7 C 3,7 C 9,9 km/h (2 Bft)
22.03.2019 05:34 6,4 C 3,8 C -0,4 C 5,0 C 6,8 C 9,3 C 58 % 54 % 73 % 72 % 64 % 1027,8 hPa 0,0 l/m 5,6 km/h (1 Bft) O-NO 67 -4,6 C 3,8 C 10,1 km/h (2 Bft)
22.03.2019 05:32 6,4 C 3,8 C 0,0 C 5,0 C 6,9 C 9,4 C 58 % 54 % 72 % 72 % 64 % 1027,8 hPa 0,0 l/m 5,6 km/h (1 Bft) NO 45 -4,6 C 3,8 C 10,1 km/h (2 Bft)
22.03.2019 05:30 6,4 C 3,8 C 0,2 C 5,0 C 6,8 C 9,3 C 58 % 54 % 72 % 72 % 64 % 1027,8 hPa 0,0 l/m 5,5 km/h (1 Bft) O-NO 67 -4,6 C 3,8 C 9,9 km/h (2 Bft)
22.03.2019 05:28 6,4 C 3,8 C 0,2 C 5,0 C 6,9 C 9,4 C 58 % 54 % 72 % 72 % 64 % 1027,8 hPa 0,0 l/m 5,3 km/h (1 Bft) NO 45 -4,6 C 3,8 C 9,9 km/h (2 Bft)
22.03.2019 05:26 6,4 C 3,8 C 0,4 C 5,0 C 6,9 C 9,4 C 58 % 54 % 72 % 72 % 64 % 1027,8 hPa 0,0 l/m 5,1 km/h (1 Bft) NO 45 -4,6 C 3,8 C 9,4 km/h (2 Bft)
22.03.2019 05:24 6,4 C 3,8 C 0,1 C 5,0 C 6,9 C 9,4 C 58 % 54 % 72 % 72 % 64 % 1027,8 hPa 0,0 l/m 5,1 km/h (1 Bft) NO 45 -4,6 C 3,8 C 10,1 km/h (2 Bft)
22.03.2019 05:22 6,3 C 3,8 C 0,3 C 5,0 C 6,9 C 9,4 C 58 % 54 % 72 % 72 % 64 % 1027,8 hPa 0,0 l/m 5,1 km/h (1 Bft) NO 45 -4,6 C 3,8 C 10,1 km/h (2 Bft)
22.03.2019 05:20 6,3 C 4,0 C 0,2 C 5,0 C 6,9 C 9,4 C 58 % 53 % 72 % 72 % 64 % 1027,7 hPa 0,0 l/m 5,3 km/h (1 Bft) NO 45 -4,7 C 4,0 C 7,5 km/h (2 Bft)
22.03.2019 05:18 6,3 C 4,0 C 0,4 C 5,0 C 6,9 C 9,5 C 58 % 54 % 72 % 72 % 63 % 1027,7 hPa 0,0 l/m 5,5 km/h (1 Bft) O-NO 67 -4,4 C 4,0 C 7,7 km/h (2 Bft)
22.03.2019 05:16 6,3 C 4,0 C 0,3 C 5,1 C 6,8 C 9,4 C 58 % 53 % 72 % 72 % 63 % 1027,7 hPa 0,0 l/m 5,6 km/h (1 Bft) NO 45 -4,7 C 4,0 C 8,0 km/h (2 Bft)
22.03.2019 05:14 6,3 C 4,0 C 0,4 C 5,1 C 6,9 C 9,4 C 58 % 53 % 72 % 72 % 63 % 1027,7 hPa 0,0 l/m 5,8 km/h (2 Bft) O-NO 67 -4,7 C 4,0 C 12,6 km/h (3 Bft)
22.03.2019 05:12 6,3 C 4,0 C 0,7 C 5,1 C 6,9 C 9,5 C 58 % 53 % 72 % 72 % 63 % 1027,7 hPa 0,0 l/m 6,0 km/h (2 Bft) O-NO 67 -4,7 C 4,0 C 8,4 km/h (2 Bft)
22.03.2019 05:10 6,5 C 4,0 C 0,8 C 5,0 C 6,8 C 9,4 C 58 % 53 % 72 % 72 % 63 % 1027,7 hPa 0,0 l/m 6,1 km/h (2 Bft) O-NO 67 -4,7 C 4,0 C 8,4 km/h (2 Bft)
22.03.2019 05:08 6,5 C 4,1 C 0,8 C 5,0 C 6,8 C 9,5 C 58 % 53 % 72 % 72 % 64 % 1027,7 hPa 0,0 l/m 5,8 km/h (2 Bft) O-NO 67 -4,6 C 4,1 C 10,1 km/h (2 Bft)
22.03.2019 05:06 6,4 C 4,1 C 1,1 C 5,0 C 6,9 C 9,5 C 58 % 53 % 72 % 72 % 64 % 1027,7 hPa 0,0 l/m 5,8 km/h (2 Bft) O-NO 67 -4,6 C 4,1 C 10,1 km/h (2 Bft)
22.03.2019 05:04 6,4 C 4,1 C 0,9 C 5,0 C 6,9 C 9,5 C 58 % 53 % 72 % 72 % 64 % 1027,7 hPa 0,0 l/m 5,8 km/h (2 Bft) O-NO 67 -4,6 C 4,1 C 9,4 km/h (2 Bft)
22.03.2019 05:02 6,4 C 4,1 C 0,7 C 5,1 C 6,8 C 9,5 C 58 % 53 % 72 % 72 % 64 % 1027,7 hPa 0,0 l/m 5,8 km/h (2 Bft) O-NO 67 -4,6 C 4,1 C 9,4 km/h (2 Bft)
22.03.2019 05:00 6,4 C 4,1 C 0,8 C 5,0 C 6,8 C 9,5 C 58 % 53 % 72 % 72 % 64 % 1027,9 hPa 0,0 l/m 5,8 km/h (2 Bft) NO 45 -4,6 C 4,1 C 9,4 km/h (2 Bft)
22.03.2019 04:58 6,4 C 4,1 C 0,8 C 5,1 C 6,8 C 9,5 C 58 % 53 % 72 % 72 % 64 % 1027,9 hPa 0,0 l/m 6,0 km/h (2 Bft) O-NO 67 -4,6 C 4,1 C 8,2 km/h (2 Bft)
22.03.2019 04:56 6,4 C 4,2 C 1,1 C 5,0 C 6,8 C 9,5 C 58 % 53 % 72 % 72 % 64 % 1027,9 hPa 0,0 l/m 5,8 km/h (2 Bft) O-NO 67 -4,5 C 4,2 C 10,4 km/h (2 Bft)
22.03.2019 04:54 6,4 C 4,2 C 1,1 C 5,1 C 6,8 C 9,5 C 58 % 53 % 72 % 72 % 64 % 1027,9 hPa 0,0 l/m 5,8 km/h (2 Bft) O-NO 67 -4,5 C 4,2 C 10,4 km/h (2 Bft)
22.03.2019 04:52 6,4 C 4,2 C 1,1 C 5,0 C 6,8 C 9,5 C 58 % 53 % 72 % 72 % 64 % 1027,9 hPa 0,0 l/m 5,6 km/h (1 Bft) O-NO 67 -4,5 C 4,2 C 10,9 km/h (2 Bft)
22.03.2019 04:50 6,6 C 4,2 C 0,9 C 5,1 C 6,8 C 9,5 C 58 % 53 % 72 % 72 % 64 % 1027,9 hPa 0,0 l/m 5,5 km/h (1 Bft) O-NO 67 -4,5 C 4,2 C 10,9 km/h (2 Bft)
22.03.2019 04:48 6,6 C 4,1 C 0,8 C 5,0 C 6,8 C 9,4 C 58 % 52 % 72 % 72 % 64 % 1027,9 hPa 0,0 l/m 5,5 km/h (1 Bft) O-NO 67 -4,9 C 4,1 C 8,2 km/h (2 Bft)
22.03.2019 04:46 6,6 C 4,1 C 0,6 C 5,0 C 6,8 C 9,5 C 58 % 53 % 72 % 72 % 64 % 1027,9 hPa 0,0 l/m 5,5 km/h (1 Bft) O-NO 67 -4,6 C 4,1 C 8,4 km/h (2 Bft)
22.03.2019 04:44 6,6 C 4,2 C 0,6 C 5,0 C 6,8 C 9,4 C 58 % 53 % 72 % 72 % 64 % 1027,9 hPa 0,0 l/m 5,5 km/h (1 Bft) O-NO 67 -4,5 C 4,2 C 8,4 km/h (2 Bft)
22.03.2019 04:42 6,6 C 4,2 C 0,6 C 5,1 C 6,8 C 9,4 C 58 % 52 % 72 % 72 % 64 % 1027,9 hPa 0,0 l/m 5,5 km/h (1 Bft) O-NO 67 -4,8 C 4,2 C 8,9 km/h (2 Bft)
22.03.2019 04:40 6,6 C 4,2 C 0,8 C 5,0 C 6,8 C 9,4 C 58 % 52 % 72 % 72 % 64 % 1027,9 hPa 0,0 l/m 5,3 km/h (1 Bft) O-NO 67 -4,8 C 4,2 C 9,9 km/h (2 Bft)
22.03.2019 04:38 6,6 C 4,2 C 0,8 C 5,1 C 6,8 C 9,4 C 58 % 52 % 72 % 73 % 64 % 1027,9 hPa 0,0 l/m 5,3 km/h (1 Bft) O-NO 67 -4,8 C 4,2 C 9,9 km/h (2 Bft)
22.03.2019 04:36 6,7 C 4,2 C 0,9 C 5,1 C 6,8 C 9,5 C 58 % 52 % 72 % 73 % 64 % 1027,9 hPa 0,0 l/m 5,3 km/h (1 Bft) O-NO 67 -4,8 C 4,2 C 9,2 km/h (2 Bft)
22.03.2019 04:34 6,5 C 4,2 C 0,4 C 5,1 C 6,8 C 9,5 C 58 % 52 % 72 % 72 % 64 % 1027,9 hPa 0,0 l/m 5,5 km/h (1 Bft) O-NO 67 -4,8 C 4,2 C 8,9 km/h (2 Bft)
22.03.2019 04:32 6,7 C 4,2 C 0,3 C 5,0 C 6,8 C 9,5 C 58 % 52 % 72 % 72 % 64 % 1027,9 hPa 0,0 l/m 5,5 km/h (1 Bft) O-NO 67 -4,8 C 4,2 C 8,7 km/h (2 Bft)
22.03.2019 04:30 6,7 C 4,2 C 0,4 C 5,0 C 6,8 C 9,5 C 58 % 52 % 72 % 72 % 64 % 1027,9 hPa 0,0 l/m 5,6 km/h (1 Bft) NO 45 -4,8 C 4,2 C 9,4 km/h (2 Bft)
22.03.2019 04:28 6,7 C 4,3 C 0,7 C 5,0 C 6,8 C 9,5 C 58 % 52 % 72 % 72 % 64 % 1027,9 hPa 0,0 l/m 5,6 km/h (1 Bft) O-NO 67 -4,7 C 4,3 C 9,4 km/h (2 Bft)
22.03.2019 04:26 6,7 C 4,3 C 0,8 C 5,1 C 6,8 C 9,5 C 58 % 52 % 72 % 72 % 64 % 1027,9 hPa 0,0 l/m 5,6 km/h (1 Bft) O-NO 67 -4,7 C 4,3 C 9,4 km/h (2 Bft)
22.03.2019 04:24 6,7 C 4,3 C 0,7 C 5,1 C 6,8 C 9,5 C 58 % 52 % 72 % 72 % 64 % 1027,9 hPa 0,0 l/m 5,6 km/h (1 Bft) O-NO 67 -4,7 C 4,3 C 9,4 km/h (2 Bft)
22.03.2019 04:22 6,6 C 4,3 C 0,6 C 5,1 C 6,8 C 9,5 C 58 % 53 % 72 % 72 % 64 % 1027,9 hPa 0,0 l/m 5,6 km/h (1 Bft) O-NO 67 -4,4 C 4,3 C 8,7 km/h (2 Bft)
22.03.2019 04:20 6,6 C 4,3 C 0,8 C 5,1 C 6,8 C 9,5 C 58 % 53 % 72 % 72 % 64 % 1028,1 hPa 0,0 l/m 5,6 km/h (1 Bft) O-NO 67 -4,4 C 4,3 C 8,7 km/h (2 Bft)
22.03.2019 04:18 6,8 C 4,2 C 0,3 C 5,1 C 6,8 C 9,5 C 58 % 53 % 72 % 72 % 64 % 1028,1 hPa 0,0 l/m 5,6 km/h (1 Bft) O-NO 67 -4,5 C 4,2 C 9,2 km/h (2 Bft)
22.03.2019 04:16 6,8 C 4,2 C 0,6 C 5,1 C 6,8 C 9,5 C 58 % 53 % 72 % 72 % 64 % 1028,1 hPa 0,0 l/m 5,5 km/h (1 Bft) O-NO 67 -4,5 C 4,2 C 9,2 km/h (2 Bft)
22.03.2019 04:14 6,8 C 4,2 C 0,7 C 5,1 C 6,9 C 9,5 C 58 % 54 % 72 % 72 % 64 % 1028,1 hPa 0,0 l/m 5,5 km/h (1 Bft) O-NO 67 -4,3 C 4,2 C 8,9 km/h (2 Bft)
22.03.2019 04:12 6,8 C 4,2 C 0,8 C 5,1 C 6,9 C 9,5 C 58 % 54 % 72 % 72 % 64 % 1028,1 hPa 0,0 l/m 5,3 km/h (1 Bft) O-NO 67 -4,3 C 4,2 C 9,2 km/h (2 Bft)
22.03.2019 04:10 6,8 C 4,2 C 0,8 C 5,1 C 6,8 C 9,5 C 58 % 54 % 72 % 72 % 64 % 1028,1 hPa 0,0 l/m 5,1 km/h (1 Bft) O-NO 67 -4,3 C 4,2 C 9,2 km/h (2 Bft)
22.03.2019 04:08 6,8 C 4,1 C 0,7 C 5,1 C 6,8 C 9,5 C 58 % 54 % 72 % 72 % 64 % 1028,1 hPa 0,0 l/m 4,8 km/h (1 Bft) O-NO 67 -4,4 C 4,1 C 7,7 km/h (2 Bft)
22.03.2019 04:06 6,8 C 4,1 C 0,6 C 5,1 C 6,8 C 9,5 C 58 % 54 % 72 % 72 % 64 % 1028,1 hPa 0,0 l/m 4,7 km/h (1 Bft) O-NO 67 -4,4 C 4,1 C 8,2 km/h (2 Bft)
22.03.2019 04:04 6,8 C 4,2 C 0,3 C 5,1 C 6,8 C 9,5 C 58 % 54 % 72 % 72 % 64 % 1028,1 hPa 0,0 l/m 4,3 km/h (1 Bft) O-NO 67 -4,3 C 4,2 C 8,2 km/h (2 Bft)
22.03.2019 04:02 6,8 C 4,2 C 0,2 C 5,1 C 6,8 C 9,5 C 58 % 54 % 72 % 72 % 64 % 1028,1 hPa 0,0 l/m 4,2 km/h (1 Bft) O 90 -4,3 C 4,2 C 7,5 km/h (2 Bft)
22.03.2019 04:00 6,8 C 4,2 C 0,1 C 5,1 C 6,8 C 9,6 C 58 % 54 % 72 % 73 % 64 % 1028,2 hPa 0,0 l/m 3,9 km/h (1 Bft) O-NO 67 -4,3 C 4,2 C 7,5 km/h (2 Bft)
22.03.2019 03:58 6,8 C 4,2 C 0,0 C 5,1 C 6,8 C 9,6 C 58 % 54 % 72 % 73 % 64 % 1028,2 hPa 0,0 l/m 3,5 km/h (1 Bft) O-NO 67 -4,3 C 4,2 C 7,0 km/h (2 Bft)
22.03.2019 03:56 6,9 C 4,1 C -0,3 C 5,1 C 6,8 C 9,6 C 58 % 54 % 72 % 73 % 64 % 1028,2 hPa 0,0 l/m 2,9 km/h (1 Bft) O-NO 67 -4,4 C 4,1 C 5,8 km/h (2 Bft)
22.03.2019 03:54 6,9 C 4,1 C -0,5 C 5,0 C 6,8 C 9,6 C 58 % 53 % 72 % 73 % 64 % 1028,2 hPa 0,0 l/m 2,6 km/h (1 Bft) O-NO 67 -4,6 C 4,1 C 6,0 km/h (2 Bft)
22.03.2019 03:52 6,8 C 4,1 C -0,8 C 5,0 C 6,8 C 9,6 C 58 % 53 % 72 % 73 % 64 % 1028,2 hPa 0,0 l/m 2,3 km/h (1 Bft) O-NO 67 -4,6 C 4,1 C 6,0 km/h (2 Bft)
22.03.2019 03:50 6,8 C 4,0 C -1,3 C 5,1 C 6,8 C 9,6 C 58 % 52 % 72 % 73 % 64 % 1028,2 hPa 0,0 l/m 1,9 km/h (1 Bft) O-NO 67 -4,9 C 4,0 C 4,3 km/h (1 Bft)
22.03.2019 03:48 6,8 C 4,0 C -1,7 C 5,1 C 6,8 C 9,6 C 58 % 52 % 72 % 73 % 64 % 1028,2 hPa 0,0 l/m 1,9 km/h (1 Bft) O-NO 67 -4,9 C 4,0 C 3,9 km/h (1 Bft)
22.03.2019 03:46 6,8 C 4,1 C -1,3 C 5,0 C 6,8 C 9,6 C 58 % 51 % 72 % 73 % 64 % 1028,2 hPa 0,0 l/m 2,1 km/h (1 Bft) O-NO 67 -5,1 C 4,1 C 2,9 km/h (1 Bft)
22.03.2019 03:44 6,8 C 4,1 C -1,3 C 5,0 C 6,8 C 9,6 C 58 % 51 % 72 % 73 % 64 % 1028,2 hPa 0,0 l/m 2,3 km/h (1 Bft) O-SO 112 -5,1 C 4,1 C 2,7 km/h (1 Bft)
22.03.2019 03:42 7,0 C 4,2 C -1,3 C 5,1 C 6,8 C 9,6 C 58 % 51 % 72 % 73 % 64 % 1028,2 hPa 0,0 l/m 2,4 km/h (1 Bft) O 90 -5,0 C 4,2 C 3,4 km/h (1 Bft)
22.03.2019 03:40 7,0 C 4,3 C -1,0 C 5,1 C 6,8 C 9,6 C 58 % 51 % 72 % 73 % 64 % 1028,3 hPa 0,0 l/m 2,6 km/h (1 Bft) O-SO 112 -4,9 C 4,3 C 3,6 km/h (1 Bft)
22.03.2019 03:38 7,0 C 4,3 C -0,9 C 5,0 C 6,8 C 9,6 C 58 % 51 % 72 % 73 % 65 % 1028,3 hPa 0,0 l/m 2,6 km/h (1 Bft) O-SO 112 -4,9 C 4,3 C 4,6 km/h (1 Bft)
22.03.2019 03:36 7,0 C 4,3 C -0,8 C 5,0 C 6,8 C 9,6 C 58 % 51 % 72 % 73 % 65 % 1028,3 hPa 0,0 l/m 2,6 km/h (1 Bft) O-SO 112 -4,9 C 4,3 C 4,6 km/h (1 Bft)
22.03.2019 03:34 7,0 C 4,4 C -0,8 C 5,1 C 6,8 C 9,6 C 58 % 51 % 72 % 73 % 65 % 1028,3 hPa 0,0 l/m 2,7 km/h (1 Bft) O-NO 67 -4,8 C 4,4 C 5,8 km/h (2 Bft)
22.03.2019 03:32 6,9 C 4,4 C -0,8 C 5,0 C 6,8 C 9,6 C 58 % 50 % 72 % 73 % 65 % 1028,3 hPa 0,0 l/m 2,6 km/h (1 Bft) O-SO 112 -5,1 C 4,4 C 5,8 km/h (2 Bft)
22.03.2019 03:30 7,0 C 4,6 C -1,2 C 5,0 C 6,8 C 9,7 C 58 % 50 % 72 % 73 % 65 % 1028,3 hPa 0,0 l/m 2,1 km/h (1 Bft) O 90 -4,9 C 4,6 C 3,9 km/h (1 Bft)
22.03.2019 03:28 6,9 C 4,6 C -1,4 C 5,0 C 6,8 C 9,7 C 58 % 50 % 72 % 73 % 65 % 1028,3 hPa 0,0 l/m 1,9 km/h (1 Bft) O-NO 67 -4,9 C 4,6 C 4,8 km/h (1 Bft)
22.03.2019 03:26 6,9 C 4,6 C -1,6 C 5,0 C 6,8 C 9,6 C 58 % 50 % 72 % 73 % 65 % 1028,3 hPa 0,0 l/m 1,9 km/h (1 Bft) O-NO 67 -4,9 C 4,6 C 4,8 km/h (1 Bft)
22.03.2019 03:24 7,1 C 4,5 C -1,9 C 5,0 C 6,8 C 9,7 C 57 % 50 % 72 % 73 % 65 % 1028,3 hPa 0,0 l/m 1,8 km/h (1 Bft) O-NO 67 -5,0 C 4,5 C 4,1 km/h (1 Bft)
22.03.2019 03:22 7,1 C 4,6 C -1,7 C 5,0 C 6,8 C 9,7 C 58 % 49 % 72 % 73 % 65 % 1028,3 hPa 0,0 l/m 1,9 km/h (1 Bft) O-NO 67 -5,2 C 4,6 C 3,4 km/h (1 Bft)
22.03.2019 03:20 7,0 C 4,6 C -1,7 C 5,0 C 6,8 C 9,7 C 58 % 49 % 72 % 73 % 65 % 1028,4 hPa 0,0 l/m 2,1 km/h (1 Bft) O 90 -5,2 C 4,6 C 3,1 km/h (1 Bft)
22.03.2019 03:18 7,2 C 4,8 C -1,7 C 5,0 C 6,8 C 9,7 C 57 % 49 % 72 % 73 % 65 % 1028,4 hPa 0,0 l/m 2,6 km/h (1 Bft) O 90 -5,0 C 4,8 C 4,1 km/h (1 Bft)
22.03.2019 03:16 7,2 C 4,9 C -1,5 C 5,0 C 6,9 C 9,7 C 57 % 49 % 72 % 73 % 65 % 1028,4 hPa 0,0 l/m 2,7 km/h (1 Bft) O-NO 67 -4,9 C 4,9 C 4,1 km/h (1 Bft)
22.03.2019 03:14 7,2 C 4,9 C -1,9 C 5,0 C 6,8 C 9,6 C 57 % 48 % 72 % 73 % 65 % 1028,4 hPa 0,0 l/m 3,1 km/h (1 Bft) O 90 -5,2 C 4,9 C 3,9 km/h (1 Bft)
22.03.2019 03:12 7,2 C 4,9 C -2,7 C 5,0 C 6,8 C 9,6 C 57 % 46 % 73 % 72 % 65 % 1028,4 hPa 0,0 l/m 2,4 km/h (1 Bft) O-NO 67 -5,7 C 4,9 C 3,9 km/h (1 Bft)
22.03.2019 03:10 7,2 C 4,9 C -2,7 C 5,0 C 6,8 C 9,6 C 57 % 46 % 73 % 72 % 65 % 1028,4 hPa 0,0 l/m 2,4 km/h (1 Bft) O-NO 67 -5,7 C 4,9 C 3,9 km/h (1 Bft)
22.03.2019 03:08 7,2 C 4,9 C -2,7 C 5,0 C 6,8 C 9,6 C 57 % 46 % 73 % 72 % 65 % 1028,4 hPa 0,0 l/m 2,4 km/h (1 Bft) O-NO 67 -5,7 C 4,9 C 3,9 km/h (1 Bft)
22.03.2019 03:06 7,2 C 4,9 C -2,7 C 5,0 C 6,8 C 9,6 C 57 % 46 % 73 % 72 % 65 % 1028,4 hPa 0,0 l/m 2,4 km/h (1 Bft) O-NO 67 -5,7 C 4,9 C 3,9 km/h (1 Bft)
22.03.2019 03:04 7,2 C 4,9 C -2,7 C 5,0 C 6,8 C 9,6 C 57 % 46 % 73 % 72 % 65 % 1028,4 hPa 0,0 l/m 2,4 km/h (1 Bft) O-NO 67 -5,7 C 4,9 C 3,9 km/h (1 Bft)
22.03.2019 03:02 7,2 C 4,9 C -2,7 C 5,0 C 6,8 C 9,6 C 57 % 46 % 73 % 72 % 65 % 1028,4 hPa 0,0 l/m 2,4 km/h (1 Bft) O-NO 67 -5,7 C 4,9 C 2,4 km/h (1 Bft)
22.03.2019 03:00 7,2 C 5,0 C -2,7 C 5,0 C 6,8 C 9,6 C 57 % 45 % 74 % 72 % 65 % 1028,6 hPa 0,0 l/m 2,9 km/h (1 Bft) N-NO 22 -5,9 C 5,0 C 3,4 km/h (1 Bft)
22.03.2019 02:58 7,2 C 5,1 C -2,4 C 5,0 C 6,8 C 9,6 C 57 % 45 % 74 % 72 % 65 % 1028,6 hPa 0,0 l/m 3,2 km/h (1 Bft) N-NO 22 -5,8 C 5,1 C 5,1 km/h (1 Bft)
22.03.2019 02:56 7,2 C 5,1 C -2,3 C 5,0 C 6,8 C 9,6 C 57 % 46 % 74 % 72 % 65 % 1028,6 hPa 0,0 l/m 3,5 km/h (1 Bft) N-NO 22 -5,5 C 5,1 C 5,6 km/h (1 Bft)
22.03.2019 02:54 7,1 C 5,2 C -2,2 C 5,0 C 6,8 C 9,6 C 57 % 46 % 74 % 72 % 65 % 1028,6 hPa 0,0 l/m 3,7 km/h (1 Bft) N-NO 22 -5,5 C 5,2 C 5,6 km/h (1 Bft)
22.03.2019 02:52 7,1 C 5,2 C -1,7 C 4,9 C 6,8 C 9,6 C 57 % 46 % 74 % 72 % 65 % 1028,6 hPa 0,0 l/m 3,9 km/h (1 Bft) N-NO 22 -5,5 C 5,2 C 5,3 km/h (1 Bft)
22.03.2019 02:50 7,1 C 5,2 C -1,5 C 5,0 C 6,8 C 9,6 C 57 % 46 % 74 % 72 % 65 % 1028,6 hPa 0,0 l/m 4,2 km/h (1 Bft) N-NO 22 -5,5 C 5,2 C 5,6 km/h (1 Bft)
22.03.2019 02:48 7,3 C 5,2 C -1,1 C 4,9 C 6,8 C 9,6 C 57 % 46 % 74 % 72 % 65 % 1028,6 hPa 0,0 l/m 4,2 km/h (1 Bft) NO 45 -5,5 C 5,2 C 6,3 km/h (2 Bft)
22.03.2019 02:46 7,3 C 5,2 C -0,8 C 4,9 C 6,8 C 9,6 C 57 % 46 % 74 % 72 % 65 % 1028,6 hPa 0,0 l/m 4,3 km/h (1 Bft) N-NO 22 -5,5 C 5,2 C 6,3 km/h (2 Bft)
22.03.2019 02:44 7,3 C 5,2 C -0,9 C 5,0 C 6,8 C 9,6 C 57 % 46 % 74 % 72 % 65 % 1028,6 hPa 0,0 l/m 4,3 km/h (1 Bft) N-NO 22 -5,5 C 5,2 C 7,7 km/h (2 Bft)
22.03.2019 02:42 7,2 C 5,2 C -0,8 C 4,9 C 6,8 C 9,6 C 57 % 46 % 74 % 72 % 65 % 1028,6 hPa 0,0 l/m 4,5 km/h (1 Bft) N-NO 22 -5,5 C 5,2 C 7,7 km/h (2 Bft)
22.03.2019 02:40 7,2 C 5,2 C -0,9 C 5,0 C 6,8 C 9,6 C 57 % 46 % 74 % 72 % 65 % 1028,8 hPa 0,0 l/m 4,5 km/h (1 Bft) N-NO 22 -5,5 C 5,2 C 7,2 km/h (2 Bft)
22.03.2019 02:38 7,2 C 5,2 C -1,3 C 5,0 C 6,8 C 9,6 C 57 % 46 % 74 % 72 % 65 % 1028,8 hPa 0,0 l/m 4,5 km/h (1 Bft) N-NO 22 -5,5 C 5,2 C 7,2 km/h (2 Bft)
22.03.2019 02:36 7,2 C 5,3 C -1,1 C 5,0 C 6,8 C 9,6 C 57 % 46 % 74 % 72 % 65 % 1028,8 hPa 0,0 l/m 4,7 km/h (1 Bft) N-NO 22 -5,4 C 5,3 C 6,5 km/h (2 Bft)
22.03.2019 02:34 7,4 C 5,3 C -1,2 C 5,0 C 6,8 C 9,6 C 57 % 46 % 74 % 72 % 65 % 1028,8 hPa 0,0 l/m 4,7 km/h (1 Bft) N-NO 22 -5,4 C 5,3 C 7,7 km/h (2 Bft)
22.03.2019 02:32 7,4 C 5,3 C -1,2 C 5,0 C 6,9 C 9,7 C 57 % 46 % 74 % 72 % 65 % 1028,8 hPa 0,0 l/m 4,7 km/h (1 Bft) N-NO 22 -5,4 C 5,3 C 7,7 km/h (2 Bft)
22.03.2019 02:30 7,4 C 5,3 C -1,2 C 5,0 C 6,8 C 9,7 C 57 % 45 % 74 % 72 % 65 % 1028,8 hPa 0,0 l/m 4,7 km/h (1 Bft) N-NO 22 -5,7 C 5,3 C 7,7 km/h (2 Bft)
22.03.2019 02:28 7,4 C 5,3 C -1,3 C 5,0 C 6,8 C 9,7 C 57 % 45 % 74 % 72 % 65 % 1028,8 hPa 0,0 l/m 4,5 km/h (1 Bft) N-NO 22 -5,7 C 5,3 C 7,5 km/h (2 Bft)
22.03.2019 02:26 7,4 C 5,3 C -1,3 C 5,0 C 6,9 C 9,7 C 57 % 45 % 74 % 72 % 65 % 1028,8 hPa 0,0 l/m 4,5 km/h (1 Bft) N-NO 22 -5,7 C 5,3 C 7,7 km/h (2 Bft)
22.03.2019 02:24 7,4 C 5,3 C -1,2 C 5,0 C 6,9 C 9,7 C 57 % 45 % 74 % 72 % 65 % 1028,8 hPa 0,0 l/m 4,3 km/h (1 Bft) N-NO 22 -5,7 C 5,3 C 7,7 km/h (2 Bft)
22.03.2019 02:22 7,3 C 5,3 C -1,3 C 5,0 C 6,9 C 9,7 C 57 % 45 % 74 % 72 % 65 % 1028,8 hPa 0,0 l/m 4,2 km/h (1 Bft) N-NO 22 -5,7 C 5,3 C 7,0 km/h (2 Bft)
22.03.2019 02:20 7,3 C 5,3 C -1,5 C 5,0 C 6,9 C 9,7 C 57 % 45 % 74 % 72 % 65 % 1028,8 hPa 0,0 l/m 4,0 km/h (1 Bft) N-NO 22 -5,7 C 5,3 C 6,8 km/h (2 Bft)
22.03.2019 02:18 7,5 C 5,3 C -1,3 C 5,0 C 6,9 C 9,7 C 57 % 45 % 74 % 72 % 65 % 1028,8 hPa 0,0 l/m 4,0 km/h (1 Bft) N-NO 22 -5,7 C 5,3 C 6,5 km/h (2 Bft)
22.03.2019 02:16 7,5 C 5,4 C -1,6 C 5,0 C 6,8 C 9,7 C 57 % 45 % 74 % 72 % 65 % 1028,8 hPa 0,0 l/m 4,2 km/h (1 Bft) N-NO 22 -5,6 C 5,4 C 6,5 km/h (2 Bft)
22.03.2019 02:14 7,5 C 5,4 C -1,5 C 5,0 C 6,9 C 9,7 C 57 % 45 % 74 % 72 % 65 % 1028,8 hPa 0,0 l/m 4,2 km/h (1 Bft) N-NO 22 -5,6 C 5,4 C 5,8 km/h (2 Bft)
22.03.2019 02:12 7,5 C 5,4 C -1,5 C 5,0 C 6,9 C 9,7 C 57 % 45 % 74 % 72 % 65 % 1028,8 hPa 0,0 l/m 4,3 km/h (1 Bft) N-NO 22 -5,6 C 5,4 C 6,8 km/h (2 Bft)
22.03.2019 02:10 7,6 C 5,6 C -1,1 C 5,0 C 6,9 C 9,7 C 57 % 45 % 74 % 72 % 65 % 1028,8 hPa 0,0 l/m 4,5 km/h (1 Bft) N-NO 22 -5,4 C 5,6 C 6,8 km/h (2 Bft)
22.03.2019 02:08 7,6 C 5,6 C -0,9 C 5,0 C 6,9 C 9,7 C 57 % 45 % 74 % 72 % 65 % 1028,8 hPa 0,0 l/m 4,5 km/h (1 Bft) N-NO 22 -5,4 C 5,6 C 7,0 km/h (2 Bft)
22.03.2019 02:06 7,6 C 5,6 C -0,8 C 5,0 C 6,9 C 9,7 C 57 % 45 % 74 % 72 % 65 % 1028,8 hPa 0,0 l/m 4,5 km/h (1 Bft) N-NO 22 -5,4 C 5,6 C 7,7 km/h (2 Bft)
22.03.2019 02:04 7,6 C 5,6 C -0,9 C 5,0 C 6,9 C 9,7 C 57 % 45 % 74 % 72 % 65 % 1028,8 hPa 0,0 l/m 4,5 km/h (1 Bft) N-NO 22 -5,4 C 5,6 C 7,7 km/h (2 Bft)
22.03.2019 02:02 7,6 C 5,6 C -1,1 C 5,0 C 6,9 C 9,7 C 57 % 44 % 74 % 72 % 65 % 1028,8 hPa 0,0 l/m 4,3 km/h (1 Bft) N-NO 22 -5,7 C 5,6 C 7,5 km/h (2 Bft)
22.03.2019 02:00 7,6 C 5,4 C -1,2 C 5,0 C 6,9 C 9,7 C 57 % 44 % 74 % 72 % 65 % 1029,2 hPa 0,0 l/m 4,3 km/h (1 Bft) N-NO 22 -5,9 C 5,4 C 7,5 km/h (2 Bft)
22.03.2019 01:58 7,6 C 5,4 C -1,3 C 5,0 C 6,9 C 9,7 C 57 % 44 % 74 % 72 % 65 % 1029,2 hPa 0,0 l/m 4,2 km/h (1 Bft) N-NO 22 -5,9 C 5,4 C 7,2 km/h (2 Bft)
22.03.2019 01:56 7,5 C 5,4 C -1,5 C 5,0 C 6,9 C 9,7 C 57 % 44 % 74 % 72 % 65 % 1029,2 hPa 0,0 l/m 4,2 km/h (1 Bft) N-NO 22 -5,9 C 5,4 C 6,8 km/h (2 Bft)
22.03.2019 01:54 7,6 C 5,4 C -1,6 C 5,0 C 6,9 C 9,7 C 57 % 44 % 74 % 72 % 65 % 1029,2 hPa 0,0 l/m 4,2 km/h (1 Bft) N-NO 22 -5,9 C 5,4 C 6,5 km/h (2 Bft)
22.03.2019 01:52 7,5 C 5,4 C -1,5 C 5,0 C 6,9 C 9,7 C 57 % 44 % 74 % 72 % 64 % 1029,2 hPa 0,0 l/m 4,2 km/h (1 Bft) N-NO 22 -5,9 C 5,4 C 6,5 km/h (2 Bft)
22.03.2019 01:50 7,5 C 5,4 C -1,5 C 5,0 C 6,9 C 9,8 C 57 % 44 % 73 % 72 % 64 % 1029,2 hPa 0,0 l/m 4,2 km/h (1 Bft) N-NO 22 -5,9 C 5,4 C 6,5 km/h (2 Bft)
22.03.2019 01:48 7,7 C 5,6 C -1,5 C 5,0 C 6,9 C 9,8 C 57 % 44 % 73 % 72 % 64 % 1029,2 hPa 0,0 l/m 4,2 km/h (1 Bft) N-NO 22 -5,7 C 5,6 C 6,8 km/h (2 Bft)
22.03.2019 01:46 7,7 C 5,6 C -1,2 C 5,0 C 6,9 C 9,7 C 57 % 44 % 73 % 72 % 64 % 1029,2 hPa 0,0 l/m 4,2 km/h (1 Bft) N-NO 22 -5,7 C 5,6 C 6,8 km/h (2 Bft)
22.03.2019 01:44 7,6 C 5,6 C -0,9 C 5,0 C 6,9 C 9,8 C 57 % 44 % 73 % 72 % 64 % 1029,2 hPa 0,0 l/m 4,0 km/h (1 Bft) N-NO 22 -5,7 C 5,6 C 6,8 km/h (2 Bft)
22.03.2019 01:42 7,6 C 5,6 C -0,8 C 5,0 C 6,9 C 9,8 C 57 % 44 % 73 % 72 % 64 % 1029,2 hPa 0,0 l/m 4,0 km/h (1 Bft) N-NO 22 -5,7 C 5,6 C 6,8 km/h (2 Bft)
22.03.2019 01:40 7,6 C 5,7 C -0,5 C 5,0 C 6,9 C 9,8 C 57 % 44 % 73 % 72 % 64 % 1029,3 hPa 0,0 l/m 4,2 km/h (1 Bft) N 360 -5,6 C 5,7 C 6,5 km/h (2 Bft)
22.03.2019 01:38 7,6 C 5,7 C -0,4 C 5,0 C 6,9 C 9,8 C 57 % 43 % 73 % 72 % 64 % 1029,3 hPa 0,0 l/m 4,3 km/h (1 Bft) N-NO 22 -5,9 C 5,7 C 6,8 km/h (2 Bft)
22.03.2019 01:36 7,8 C 5,7 C -0,4 C 5,0 C 6,9 C 9,9 C 57 % 43 % 73 % 72 % 64 % 1029,3 hPa 0,0 l/m 4,5 km/h (1 Bft) N 360 -5,9 C 5,7 C 6,8 km/h (2 Bft)
22.03.2019 01:34 7,8 C 5,7 C -0,3 C 5,0 C 6,9 C 9,8 C 57 % 43 % 73 % 72 % 64 % 1029,3 hPa 0,0 l/m 4,8 km/h (1 Bft) N-NO 22 -5,9 C 5,7 C 12,1 km/h (2 Bft)
22.03.2019 01:32 7,8 C 5,7 C -0,3 C 5,0 C 6,9 C 9,8 C 57 % 43 % 73 % 72 % 64 % 1029,3 hPa 0,0 l/m 5,1 km/h (1 Bft) N-NO 22 -5,9 C 5,7 C 7,7 km/h (2 Bft)
22.03.2019 01:30 7,8 C 5,8 C -0,3 C 5,0 C 6,9 C 9,9 C 57 % 43 % 73 % 72 % 64 % 1029,3 hPa 0,0 l/m 5,1 km/h (1 Bft) N-NO 22 -5,8 C 5,8 C 8,0 km/h (2 Bft)
22.03.2019 01:28 7,8 C 5,8 C 0,1 C 5,0 C 6,9 C 9,9 C 57 % 43 % 72 % 72 % 64 % 1029,3 hPa 0,0 l/m 5,1 km/h (1 Bft) N-NO 22 -5,8 C 5,8 C 9,4 km/h (2 Bft)
22.03.2019 01:26 7,8 C 5,9 C 0,1 C 5,0 C 6,9 C 9,9 C 57 % 43 % 72 % 72 % 64 % 1029,3 hPa 0,0 l/m 5,1 km/h (1 Bft) N-NO 22 -5,7 C 5,9 C 10,4 km/h (2 Bft)
22.03.2019 01:24 7,8 C 5,9 C -0,7 C 5,0 C 7,0 C 9,9 C 57 % 43 % 72 % 72 % 64 % 1029,3 hPa 0,0 l/m 5,0 km/h (1 Bft) NO 45 -5,7 C 5,9 C 10,4 km/h (2 Bft)
22.03.2019 01:22 7,9 C 5,9 C -0,7 C 5,0 C 7,0 C 9,9 C 57 % 43 % 72 % 72 % 64 % 1029,3 hPa 0,0 l/m 4,7 km/h (1 Bft) N-NO 22 -5,7 C 5,9 C 8,4 km/h (2 Bft)
22.03.2019 01:20 7,9 C 6,0 C -0,6 C 5,0 C 7,0 C 9,9 C 57 % 44 % 72 % 72 % 64 % 1029,4 hPa 0,0 l/m 4,7 km/h (1 Bft) N-NO 22 -5,3 C 6,0 C 7,2 km/h (2 Bft)
22.03.2019 01:18 7,9 C 6,0 C -0,3 C 5,0 C 7,0 C 9,9 C 57 % 44 % 72 % 72 % 64 % 1029,4 hPa 0,0 l/m 4,7 km/h (1 Bft) N-NO 22 -5,3 C 6,0 C 7,5 km/h (2 Bft)
22.03.2019 01:16 7,9 C 6,1 C -0,5 C 5,0 C 7,1 C 9,9 C 57 % 44 % 72 % 72 % 64 % 1029,4 hPa 0,0 l/m 4,7 km/h (1 Bft) N-NO 22 -5,2 C 6,1 C 7,5 km/h (2 Bft)
22.03.2019 01:14 7,9 C 6,1 C -0,6 C 5,0 C 7,0 C 9,9 C 57 % 44 % 72 % 72 % 64 % 1029,4 hPa 0,0 l/m 4,7 km/h (1 Bft) N 360 -5,2 C 6,1 C 7,0 km/h (2 Bft)
22.03.2019 01:12 7,8 C 6,1 C -0,5 C 5,0 C 7,1 C 9,9 C 57 % 44 % 72 % 72 % 64 % 1029,4 hPa 0,0 l/m 4,8 km/h (1 Bft) N-NO 22 -5,2 C 6,1 C 7,5 km/h (2 Bft)
22.03.2019 01:10 7,8 C 6,1 C -0,3 C 5,0 C 7,0 C 9,9 C 57 % 43 % 72 % 72 % 64 % 1029,4 hPa 0,0 l/m 4,8 km/h (1 Bft) N-NO 22 -5,5 C 6,1 C 7,5 km/h (2 Bft)
22.03.2019 01:08 8,0 C 6,1 C -0,2 C 5,1 C 7,0 C 9,9 C 57 % 43 % 72 % 72 % 64 % 1029,4 hPa 0,0 l/m 4,7 km/h (1 Bft) N-NO 22 -5,5 C 6,1 C 7,5 km/h (2 Bft)
22.03.2019 01:06 8,0 C 6,1 C -0,5 C 5,1 C 7,1 C 9,9 C 57 % 43 % 72 % 72 % 64 % 1029,4 hPa 0,0 l/m 4,7 km/h (1 Bft) N-NO 22 -5,5 C 6,1 C 7,5 km/h (2 Bft)
22.03.2019 01:04 8,0 C 6,1 C -0,5 C 5,1 C 7,1 C 9,9 C 57 % 43 % 72 % 72 % 64 % 1029,4 hPa 0,0 l/m 4,8 km/h (1 Bft) N-NO 22 -5,5 C 6,1 C 7,5 km/h (2 Bft)
22.03.2019 01:02 8,0 C 6,1 C -0,6 C 5,1 C 7,1 C 9,8 C 57 % 43 % 71 % 72 % 64 % 1029,4 hPa 0,0 l/m 4,8 km/h (1 Bft) N-NO 22 -5,5 C 6,1 C 7,5 km/h (2 Bft)
22.03.2019 01:00 8,0 C 6,1 C -0,6 C 5,1 C 7,1 C 9,9 C 57 % 43 % 72 % 72 % 64 % 1029,6 hPa 0,0 l/m 5,0 km/h (1 Bft) N-NO 22 -5,5 C 6,1 C 7,2 km/h (2 Bft)
22.03.2019 00:58 8,0 C 6,1 C -0,5 C 5,1 C 7,1 C 9,9 C 57 % 43 % 72 % 72 % 64 % 1029,6 hPa 0,0 l/m 5,1 km/h (1 Bft) N-NO 22 -5,5 C 6,1 C 7,0 km/h (2 Bft)
22.03.2019 00:56 8,0 C 6,2 C -0,3 C 5,1 C 7,1 C 9,8 C 57 % 43 % 71 % 72 % 64 % 1029,6 hPa 0,0 l/m 5,3 km/h (1 Bft) N-NO 22 -5,4 C 6,2 C 8,0 km/h (2 Bft)
22.03.2019 00:54 7,9 C 6,2 C 0,0 C 5,1 C 7,0 C 9,8 C 57 % 43 % 71 % 72 % 64 % 1029,6 hPa 0,0 l/m 5,5 km/h (1 Bft) N-NO 22 -5,4 C 6,2 C 9,7 km/h (2 Bft)
22.03.2019 00:52 7,9 C 6,2 C 0,0 C 5,1 C 7,0 C 9,8 C 57 % 43 % 70 % 72 % 64 % 1029,6 hPa 0,0 l/m 5,5 km/h (1 Bft) N-NO 22 -5,4 C 6,2 C 9,7 km/h (2 Bft)
22.03.2019 00:50 8,1 C 6,3 C 0,2 C 5,1 C 7,0 C 9,9 C 57 % 43 % 70 % 72 % 64 % 1029,6 hPa 0,0 l/m 5,3 km/h (1 Bft) N-NO 22 -5,3 C 6,3 C 9,2 km/h (2 Bft)
22.03.2019 00:48 8,1 C 6,4 C 0,2 C 5,1 C 7,0 C 9,8 C 57 % 43 % 70 % 73 % 64 % 1029,6 hPa 0,0 l/m 5,1 km/h (1 Bft) N-NO 22 -5,2 C 6,4 C 9,2 km/h (2 Bft)
22.03.2019 00:46 8,1 C 6,4 C 0,0 C 5,1 C 7,0 C 9,9 C 57 % 42 % 69 % 73 % 64 % 1029,6 hPa 0,0 l/m 5,1 km/h (1 Bft) N-NO 22 -5,6 C 6,4 C 8,9 km/h (2 Bft)
22.03.2019 00:44 8,1 C 6,5 C -0,1 C 5,1 C 7,0 C 9,9 C 57 % 42 % 69 % 73 % 64 % 1029,6 hPa 0,0 l/m 5,0 km/h (1 Bft) N-NO 22 -5,5 C 6,5 C 9,2 km/h (2 Bft)
22.03.2019 00:42 8,1 C 6,5 C -0,3 C 5,1 C 7,0 C 9,9 C 57 % 42 % 69 % 73 % 64 % 1029,6 hPa 0,0 l/m 4,8 km/h (1 Bft) N-NO 22 -5,5 C 6,5 C 8,4 km/h (2 Bft)
22.03.2019 00:40 8,1 C 6,5 C -0,3 C 5,1 C 7,0 C 9,9 C 57 % 42 % 69 % 73 % 64 % 1029,7 hPa 0,0 l/m 4,7 km/h (1 Bft) N-NO 22 -5,5 C 6,5 C 7,7 km/h (2 Bft)
22.03.2019 00:38 8,2 C 6,6 C -0,3 C 5,1 C 7,1 C 9,9 C 57 % 42 % 69 % 73 % 64 % 1029,7 hPa 0,0 l/m 4,5 km/h (1 Bft) N-NO 22 -5,4 C 6,6 C 7,2 km/h (2 Bft)
22.03.2019 00:36 8,2 C 6,6 C -0,5 C 5,1 C 7,1 C 9,9 C 57 % 42 % 69 % 73 % 64 % 1029,7 hPa 0,0 l/m 4,3 km/h (1 Bft) N-NO 22 -5,4 C 6,6 C 7,2 km/h (2 Bft)
22.03.2019 00:34 8,2 C 6,6 C -0,6 C 5,1 C 7,0 C 9,9 C 57 % 42 % 69 % 73 % 64 % 1029,7 hPa 0,0 l/m 4,0 km/h (1 Bft) N-NO 22 -5,4 C 6,6 C 7,2 km/h (2 Bft)
22.03.2019 00:32 8,2 C 6,6 C -0,6 C 5,1 C 7,1 C 9,9 C 57 % 42 % 69 % 73 % 64 % 1029,7 hPa 0,0 l/m 3,9 km/h (1 Bft) N-NO 22 -5,4 C 6,6 C 6,8 km/h (2 Bft)
22.03.2019 00:30 8,2 C 6,6 C -0,6 C 5,1 C 7,1 C 9,9 C 57 % 42 % 69 % 73 % 64 % 1029,7 hPa 0,0 l/m 3,7 km/h (1 Bft) N-NO 22 -5,4 C 6,6 C 6,8 km/h (2 Bft)
22.03.2019 00:28 8,2 C 6,6 C -0,6 C 5,1 C 7,1 C 9,9 C 57 % 42 % 69 % 73 % 64 % 1029,7 hPa 0,0 l/m 3,5 km/h (1 Bft) N-NO 22 -5,4 C 6,6 C 6,5 km/h (2 Bft)
22.03.2019 00:26 8,2 C 6,6 C -0,5 C 5,1 C 7,1 C 9,9 C 57 % 42 % 69 % 73 % 64 % 1029,7 hPa 0,0 l/m 3,2 km/h (1 Bft) N-NO 22 -5,4 C 6,6 C 6,0 km/h (2 Bft)
22.03.2019 00:24 8,3 C 6,5 C -0,7 C 5,1 C 7,1 C 9,9 C 57 % 42 % 69 % 73 % 64 % 1029,7 hPa 0,0 l/m 3,1 km/h (1 Bft) N-NO 22 -5,5 C 6,5 C 6,0 km/h (2 Bft)
22.03.2019 00:22 8,1 C 6,5 C -1,1 C 5,1 C 7,1 C 9,9 C 57 % 42 % 69 % 73 % 64 % 1029,7 hPa 0,0 l/m 3,1 km/h (1 Bft) N-NO 22 -5,5 C 6,5 C 5,6 km/h (1 Bft)
22.03.2019 00:20 8,3 C 6,5 C -1,1 C 5,1 C 7,1 C 9,9 C 57 % 42 % 69 % 73 % 64 % 1029,8 hPa 0,0 l/m 3,1 km/h (1 Bft) N-NO 22 -5,5 C 6,5 C 5,1 km/h (1 Bft)
22.03.2019 00:18 8,3 C 6,5 C -1,1 C 5,1 C 7,1 C 9,9 C 57 % 41 % 69 % 73 % 64 % 1029,8 hPa 0,0 l/m 3,2 km/h (1 Bft) N-NO 22 -5,8 C 6,5 C 4,8 km/h (1 Bft)
22.03.2019 00:16 8,3 C 6,6 C -1,0 C 5,1 C 7,1 C 9,9 C 57 % 41 % 69 % 73 % 64 % 1029,8 hPa 0,0 l/m 3,4 km/h (1 Bft) N 360 -5,7 C 6,6 C 4,3 km/h (1 Bft)
22.03.2019 00:14 8,3 C 6,6 C -0,8 C 5,1 C 7,1 C 9,9 C 57 % 41 % 69 % 73 % 64 % 1029,8 hPa 0,0 l/m 3,7 km/h (1 Bft) N-NO 22 -5,7 C 6,6 C 7,2 km/h (2 Bft)
22.03.2019 00:12 8,3 C 6,8 C 0,8 C 5,1 C 7,1 C 9,9 C 57 % 41 % 69 % 73 % 63 % 1029,8 hPa 0,0 l/m 5,1 km/h (1 Bft) N-NO 22 -5,5 C 6,8 C 7,2 km/h (2 Bft)
22.03.2019 00:10 8,2 C 6,8 C 0,8 C 5,1 C 7,1 C 9,9 C 57 % 41 % 69 % 73 % 63 % 1029,8 hPa 0,0 l/m 5,1 km/h (1 Bft) N-NO 22 -5,5 C 6,8 C 7,2 km/h (2 Bft)
22.03.2019 00:08 8,2 C 6,8 C 0,8 C 5,1 C 7,1 C 9,9 C 57 % 41 % 69 % 73 % 63 % 1029,8 hPa 0,0 l/m 5,1 km/h (1 Bft) N-NO 22 -5,5 C 6,8 C 7,2 km/h (2 Bft)
22.03.2019 00:06 8,4 C 6,8 C 0,8 C 5,1 C 7,1 C 9,9 C 57 % 41 % 69 % 73 % 63 % 1029,8 hPa 0,0 l/m 5,1 km/h (1 Bft) N-NO 22 -5,5 C 6,8 C 7,2 km/h (2 Bft)
22.03.2019 00:04 8,2 C 6,8 C 0,8 C 5,1 C 7,1 C 9,9 C 57 % 41 % 69 % 73 % 63 % 1029,8 hPa 0,0 l/m 5,1 km/h (1 Bft) N-NO 22 -5,5 C 6,8 C 7,2 km/h (2 Bft)
22.03.2019 00:02 8,4 C 6,9 C 0,9 C 5,1 C 7,1 C 9,9 C 57 % 41 % 69 % 73 % 63 % 1029,8 hPa 0,0 l/m 5,5 km/h (1 Bft) N-NO 22 -5,4 C 6,9 C 8,2 km/h (2 Bft)
22.03.2019 00:00 8,4 C 6,9 C 1,4 C 5,1 C 7,1 C 9,9 C 57 % 41 % 69 % 73 % 63 % 1030,0 hPa 0,0 l/m 5,8 km/h (2 Bft) N-NO 22 -5,4 C 6,9 C 9,2 km/h (2 Bft)
_ Min-Zeit 06:24 05:36 03:00 02:42 06:34 06:16 00:00 00:00 00:00 00:50 08:46 05:42 - 08:06 - - 03:00 05:36 07:56
Minimum _ 6,0 C 3,7 C -2,7 C 4,9 C 6,6 C 9,2 C 57 % 41 % 69 % 72 % 61 % 1027,6 hPa - 0,5 km/h (0 Bft) - - -5,9 C 3,7 C 0,0 km/h (0 Bft)
_ Max-Zeit 09:40 09:42 09:38 09:32 09:42 09:32 06:46 06:14 01:52 08:26 01:54 00:00 00:00 05:54 - - 09:42 09:42 05:54
Maximum _ 8,7 C 8,1 C 16,7 C 5,4 C 7,8 C 10,7 C 59 % 56 % 74 % 74 % 65 % 1030,0 hPa 0,0 l/m 6,3 km/h
O-NO (2 Bft)
- - -1,4 C 8,1 C 12,8 km/h
O-NO (3 Bft)
Durchschnitt _ 7,1 C 5,3 C 2,2 C 5,1 C 6,9 C 9,7 C 58 % 50 % 72 % 72 % 64 % 1028,5 hPa #0,0 l/m 4,0 km/h (1 Bft) O-NO - -4,4 C 5,3 C 7,2 km/h (2 Bft)